Prescott, AZ

2:28 PM MST on October 01, 2016 (GMT -0700)
Love

Weather History for KPRC - August, 2013

Change the Weather History Date:

Saturday, August 17, 2013

  Actual Average Record
Temperature  
Mean Temperature 78 °F 74 °F  
Max Temperature 91 °F 87 °F 97 °F (2011)
Min Temperature 64 °F 61 °F 48 °F (1949)
Degree Days  
Heating Degree Days 0    
Month to date heating degree days 0  
Since 1 July heating degree days 0  
Cooling Degree Days 13    
Month to date cooling degree days 178  
Year to date cooling degree days 910  
Growing Degree Days 27 (Base 50)    
Moisture  
Dew Point 54 °F    
Average Humidity 52    
Maximum Humidity 84    
Minimum Humidity 24    
Precipitation  
Precipitation 0.12 in 0.08 in 1.51 in (1983)
Month to date precipitation 0.21 1.52  
Year to date precipitation 6.04 8.56  
Sea Level Pressure  
Sea Level Pressure 29.97 in    
Wind  
Wind Speed 7 mph (SSW)    
Max Wind Speed 30 mph    
Max Gust Speed 35 mph    
Visibility 10 miles    
Events Rain , Thunderstorm    
T = Trace of Precipitation, MM = Missing Value Source: NWS Daily Summary

Daily Weather History Graph

Daily Weather History Graph

Search for Another Location

Airport or City:

Trip Planner

Search our weather history database for the weather conditions in past years. The results will help you decide how hot, cold, wet, or windy it might be!

Date:

Astronomy

Aug. 17, 2013 Rise Set
Actual Time 5:51 AM MST 7:14 PM MST
Civil Twilight 5:25 AM MST 7:41 PM MST
Nautical Twilight 4:53 AM MST 8:12 PM MST
Astronomical Twilight 4:20 AM MST 8:45 PM MST
Moon 4:29 PM MST (8/17) 2:03 AM MST (8/17)
Length of Visible Light 14h 15m
Length of Day
13h 22m
Waxing Gibbous, 85% of the Moon is Illuminated
Aug 17
Waxing Gibbous
Aug 20
Full
Aug 28
Last Quarter
Sep 5
New
Sep 12
First Quarter

Hourly Weather History & Observations

Time (MST) Temp. Heat Index Dew Point Humidity Pressure Visibility Wind Dir Wind Speed Gust Speed Precip Events Conditions
12:53 AM 69.1 °F - 51.1 °F 53% 29.94 in 10.0 mi SSW 9.2 mph - N/A   Clear
1:53 AM 69.1 °F - 51.1 °F 53% 29.94 in 10.0 mi South 8.1 mph - N/A   Clear
2:53 AM 66.0 °F - 51.1 °F 59% 29.95 in 10.0 mi Calm Calm - N/A   Clear
3:53 AM 64.9 °F - 52.0 °F 63% 29.95 in 10.0 mi SSW 6.9 mph - N/A   Clear
4:53 AM 66.0 °F - 51.1 °F 59% 29.95 in 10.0 mi SSW 4.6 mph - N/A   Clear
5:53 AM 68.0 °F - 51.1 °F 55% 29.95 in 10.0 mi Calm Calm - N/A   Clear
6:53 AM 68.0 °F - 52.0 °F 56% 29.98 in 10.0 mi Calm Calm - N/A   Clear
7:53 AM 72.0 °F - 53.1 °F 51% 29.99 in 10.0 mi Calm Calm - N/A   Partly Cloudy
8:53 AM 81.0 °F 80.4 °F 53.1 °F 38% 29.98 in 10.0 mi Calm Calm - N/A   Clear
9:53 AM 87.1 °F - 48.9 °F 27% 29.97 in 10.0 mi Calm Calm - N/A   Clear
10:53 AM 90.0 °F - 48.0 °F 24% 29.94 in 10.0 mi Variable 3.5 mph - N/A   Clear
11:53 AM 87.1 °F - 48.9 °F 27% 29.93 in 10.0 mi South 4.6 mph - N/A   Scattered Clouds
12:53 PM 78.1 °F - 54.0 °F 43% 29.95 in 10.0 mi South 9.2 mph - 0.00 in Rain , Thunderstorm Light Thunderstorms and Rain
1:53 PM 80.1 °F 80.1 °F 55.0 °F 42% 29.91 in 10.0 mi SW 10.4 mph - 0.00 in Thunderstorm Thunderstorm
2:53 PM 82.0 °F 81.2 °F 53.1 °F 37% 29.91 in 10.0 mi SSW 8.1 mph - N/A Thunderstorm Thunderstorm
3:53 PM 89.1 °F - 48.9 °F 25% 29.88 in 10.0 mi NNE 11.5 mph - N/A Thunderstorm Thunderstorm
4:53 PM 78.1 °F - 55.0 °F 45% 29.93 in 9.0 mi NNW 20.7 mph 26.5 mph 0.00 in Rain , Thunderstorm Light Thunderstorms and Rain
5:17 PM 73.4 °F - 59.0 °F 61% 30.20 in 8.0 mi NNE 13.8 mph - 0.00 in Rain , Thunderstorm Light Thunderstorms and Rain
5:53 PM 72.0 °F - 57.9 °F 61% 30.00 in 10.0 mi NNW 8.1 mph - 0.01 in Rain Light Rain
6:53 PM 70.0 °F - 59.0 °F 68% 30.04 in 10.0 mi NNE 4.6 mph - 0.01 in Rain , Thunderstorm Light Thunderstorms and Rain
7:53 PM 66.0 °F - 57.9 °F 75% 30.01 in 10.0 mi NNE 25.3 mph 34.5 mph 0.02 in Rain , Thunderstorm Thunderstorms and Rain
8:53 PM 66.0 °F - 57.9 °F 75% 30.02 in 10.0 mi Calm Calm - 0.05 in Rain Light Rain
9:53 PM 64.0 °F - 59.0 °F 84% 30.00 in 8.0 mi SW 9.2 mph - 0.02 in Rain Light Rain
10:53 PM 71.1 °F - 54.0 °F 55% 29.89 in 10.0 mi East 5.8 mph - 0.01 in   Mostly Cloudy
11:53 PM 64.9 °F - 57.0 °F 75% 29.94 in 10.0 mi SSE 5.8 mph - N/A   Clear